#Datum;Uhrzeit;WR;Pac;DaySum;Status;WR;Pac;DaySum;Status;Pdc1;Udc;Temp;WR;Pac;DaySum;Status;Pdc1;Udc;Temp;WR;Pac;DaySum;Status;Pdc1;Udc;Temp;WR;Pac;DaySum;Status;Pdc1;Pdc2;Udc1;Udc2;Temp;WR;Pac;DaySum;Status;Pdc1;Pdc2;Udc1;Udc2;Temp;WR;Pac;DaySum;Status;Pdc1;Udc;Temp;WR;Pac;DaySum;Status;Pdc1;Udc;Temp;WR;Pac;DaySum;Status;Pdc1;Udc;Temp
24.02.19;23:55:00;1;711;12555;0;2;0;15405;0;0;0;0;3;0;9581;0;0;0;0;4;0;13583;0;0;0;0;5;0;35622;0;0;0;0;0;0;6;0;27210;0;0;0;0;0;0;7;0;22270;0;0;0;0;8;0;21664;0;0;0;0;9;0;11455;0;0;0;0
24.02.19;23:50:00;1;270;12502;0;2;0;15405;0;0;0;0;3;0;9581;0;0;0;0;4;0;13583;0;0;0;0;5;0;35622;0;0;0;0;0;0;6;0;27210;0;0;0;0;0;0;7;0;22270;0;0;0;0;8;0;21664;0;0;0;0;9;0;11455;0;0;0;0
24.02.19;23:45:00;1;240;12480;0;2;0;15405;0;0;0;0;3;0;9581;0;0;0;0;4;0;13583;0;0;0;0;5;0;35622;0;0;0;0;0;0;6;0;27210;0;0;0;0;0;0;7;0;22270;0;0;0;0;8;0;21664;0;0;0;0;9;0;11455;0;0;0;0
24.02.19;23:40:00;1;475;12459;0;2;0;15405;0;0;0;0;3;0;9581;0;0;0;0;4;0;13583;0;0;0;0;5;0;35622;0;0;0;0;0;0;6;0;27210;0;0;0;0;0;0;7;0;22270;0;0;0;0;8;0;21664;0;0;0;0;9;0;11455;0;0;0;0
24.02.19;23:35:00;1;525;12429;0;2;0;15405;0;0;0;0;3;0;9581;0;0;0;0;4;0;13583;0;0;0;0;5;0;35622;0;0;0;0;0;0;6;0;27210;0;0;0;0;0;0;7;0;22270;0;0;0;0;8;0;21664;0;0;0;0;9;0;11455;0;0;0;0
24.02.19;23:31:00;1;228;12395;0;2;0;15405;0;0;0;0;3;0;9581;0;0;0;0;4;0;13583;0;0;0;0;5;0;35622;0;0;0;0;0;0;6;0;27210;0;0;0;0;0;0;7;0;22270;0;0;0;0;8;0;21664;0;0;0;0;9;0;11455;0;0;0;0
24.02.19;23:25:00;1;228;12372;0;2;0;15405;0;0;0;0;3;0;9581;0;0;0;0;4;0;13583;0;0;0;0;5;0;35622;0;0;0;0;0;0;6;0;27210;0;0;0;0;0;0;7;0;22270;0;0;0;0;8;0;21664;0;0;0;0;9;0;11455;0;0;0;0
24.02.19;23:20:00;1;580;12353;0;2;0;15405;0;0;0;0;3;0;9581;0;0;0;0;4;0;13583;0;0;0;0;5;0;35622;0;0;0;0;0;0;6;0;27210;0;0;0;0;0;0;7;0;22270;0;0;0;0;8;0;21664;0;0;0;0;9;0;11455;0;0;0;0
24.02.19;23:15:00;1;230;12307;0;2;0;15405;0;0;0;0;3;0;9581;0;0;0;0;4;0;13583;0;0;0;0;5;0;35622;0;0;0;0;0;0;6;0;27210;0;0;0;0;0;0;7;0;22270;0;0;0;0;8;0;21664;0;0;0;0;9;0;11455;0;0;0;0
24.02.19;23:10:00;1;301;12287;0;2;0;15405;0;0;0;0;3;0;9581;0;0;0;0;4;0;13583;0;0;0;0;5;0;35622;0;0;0;0;0;0;6;0;27210;0;0;0;0;0;0;7;0;22270;0;0;0;0;8;0;21664;0;0;0;0;9;0;11455;0;0;0;0
24.02.19;23:07:00;1;303;12272;0;2;0;15405;0;0;0;0;3;0;9581;0;0;0;0;4;0;13583;0;0;0;0;5;0;35622;0;0;0;0;0;0;6;0;27210;0;0;0;0;0;0;7;0;22270;0;0;0;0;8;0;21664;0;0;0;0;9;0;11455;0;0;0;0
24.02.19;23:00:00;1;477;12206;0;2;0;15405;0;0;0;0;3;0;9581;0;0;0;0;4;0;13583;0;0;0;0;5;0;35622;0;0;0;0;0;0;6;0;27210;0;0;0;0;0;0;7;0;22270;0;0;0;0;8;0;21664;0;0;0;0;9;0;11455;0;0;0;0
24.02.19;22:55:00;1;487;12166;0;2;0;15405;0;0;0;0;3;0;9581;0;0;0;0;4;0;13583;0;0;0;0;5;0;35622;2;0;0;0;0;0;6;0;27210;2;0;0;0;0;0;7;0;22270;0;0;0;0;8;0;21664;0;0;0;0;9;0;11455;0;0;0;0
24.02.19;22:50:00;1;438;12126;0;2;0;15405;0;0;0;0;3;0;9581;0;0;0;0;4;0;13583;0;0;0;0;5;0;35622;2;0;0;0;0;0;6;0;27210;2;0;0;0;0;0;7;0;22270;0;0;0;0;8;0;21664;0;0;0;0;9;0;11455;0;0;0;0
24.02.19;22:45:00;1;642;12089;0;2;0;15405;0;0;0;0;3;0;9581;0;0;0;0;4;0;13583;0;0;0;0;5;0;35622;2;0;0;0;0;0;6;0;27210;2;0;0;0;0;0;7;0;22270;0;0;0;0;8;0;21664;0;0;0;0;9;0;11455;0;0;0;0
24.02.19;22:40:00;1;439;12026;0;2;0;15405;0;0;0;0;3;0;9581;0;0;0;0;4;0;13583;0;0;0;0;5;0;35622;2;0;0;0;0;0;6;0;27210;2;0;0;0;0;0;7;0;22270;0;0;0;0;8;0;21664;0;0;0;0;9;0;11455;0;0;0;0
24.02.19;22:35:00;1;436;11989;0;2;0;15405;0;0;0;0;3;0;9581;0;0;0;0;4;0;13583;0;0;0;0;5;0;35622;2;0;0;0;0;0;6;0;27210;2;0;0;0;0;0;7;0;22270;0;0;0;0;8;0;21664;0;0;0;0;9;0;11455;0;0;0;0
24.02.19;22:30:00;1;642;11952;0;2;0;15405;0;0;0;0;3;0;9581;0;0;0;0;4;0;13583;0;0;0;0;5;0;35622;2;0;0;0;0;0;6;0;27210;2;0;0;0;0;0;7;0;22270;0;0;0;0;8;0;21664;0;0;0;0;9;0;11455;0;0;0;0
24.02.19;22:25:00;1;436;11888;0;2;0;15405;0;0;0;0;3;0;9581;0;0;0;0;4;0;13583;0;0;0;0;5;0;35622;2;0;0;0;0;0;6;0;27210;2;0;0;0;0;0;7;0;22270;0;0;0;0;8;0;21664;0;0;0;0;9;0;11455;0;0;0;0
24.02.19;22:20:00;1;443;11852;0;2;0;15405;0;0;0;0;3;0;9581;0;0;0;0;4;0;13583;0;0;0;0;5;0;35622;2;0;0;0;0;0;6;0;27210;2;0;0;0;0;0;7;0;22270;0;0;0;0;8;0;21664;0;0;0;0;9;0;11455;0;0;0;0
24.02.19;22:15:00;1;517;11815;0;2;0;15405;0;0;0;0;3;0;9581;0;0;0;0;4;0;13583;0;0;0;0;5;0;35622;2;0;0;0;0;0;6;0;27210;2;0;0;0;0;0;7;0;22270;0;0;0;0;8;0;21664;0;0;0;0;9;0;11455;0;0;0;0
24.02.19;22:10:00;1;741;11754;0;2;0;15405;0;0;0;0;3;0;9581;0;0;0;0;4;0;13583;0;0;0;0;5;0;35622;2;0;0;0;0;0;6;0;27210;2;0;0;0;0;0;7;0;22270;0;0;0;0;8;0;21664;0;0;0;0;9;0;11455;0;0;0;0
24.02.19;22:05:00;1;578;11701;0;2;0;15405;0;0;0;0;3;0;9581;0;0;0;0;4;0;13583;0;0;0;0;5;0;35622;2;0;0;0;0;0;6;0;27210;2;0;0;0;0;0;7;0;22270;0;0;0;0;8;0;21664;0;0;0;0;9;0;11455;0;0;0;0
24.02.19;22:00:00;1;559;11653;0;2;0;15405;0;0;0;0;3;0;9581;0;0;0;0;4;0;13583;0;0;0;0;5;0;35622;2;0;0;0;0;0;6;0;27210;2;0;0;0;0;0;7;0;22270;0;0;0;0;8;0;21664;0;0;0;0;9;0;11455;0;0;0;0
24.02.19;21:55:00;1;835;11605;0;2;0;15405;0;0;0;0;3;0;9581;0;0;0;0;4;0;13583;0;0;0;0;5;0;35622;2;0;0;0;0;0;6;0;27210;2;0;0;0;0;0;7;0;22270;0;0;0;0;8;0;21664;0;0;0;0;9;0;11455;0;0;0;0
24.02.19;21:50:00;1;656;11526;0;2;0;15405;0;0;0;0;3;0;9581;0;0;0;0;4;0;13583;0;0;0;0;5;0;35622;2;0;0;0;0;0;6;0;27210;2;0;0;0;0;0;7;0;22270;0;0;0;0;8;0;21664;0;0;0;0;9;0;11455;0;0;0;0
24.02.19;21:45:00;1;669;11472;0;2;0;15405;0;0;0;0;3;0;9581;0;0;0;0;4;0;13583;0;0;0;0;5;0;35622;2;0;0;0;0;0;6;0;27210;2;0;0;0;0;0;7;0;22270;0;0;0;0;8;0;21664;0;0;0;0;9;0;11455;0;0;0;0
24.02.19;21:40:00;1;1147;11416;0;2;0;15405;0;0;0;0;3;0;9581;0;0;0;0;4;0;13583;0;0;0;0;5;0;35622;2;0;0;0;0;0;6;0;27210;2;0;0;0;0;0;7;0;22270;0;0;0;0;8;0;21664;0;0;0;0;9;0;11455;0;0;0;0
24.02.19;21:35:00;1;598;11338;0;2;0;15405;0;0;0;0;3;0;9581;0;0;0;0;4;0;13583;0;0;0;0;5;0;35622;2;0;0;0;0;0;6;0;27210;2;0;0;0;0;0;7;0;22270;0;0;0;0;8;0;21664;0;0;0;0;9;0;11455;0;0;0;0
24.02.19;21:30:00;1;3088;11247;0;2;0;15405;0;0;0;0;3;0;9581;0;0;0;0;4;0;13583;0;0;0;0;5;0;35622;2;0;0;0;0;0;6;0;27210;2;0;0;0;0;0;7;0;22270;0;0;0;0;8;0;21664;0;0;0;0;9;0;11455;0;0;0;0
24.02.19;21:25:00;1;1004;10980;0;2;0;15405;0;0;0;0;3;0;9581;0;0;0;0;4;0;13583;0;0;0;0;5;0;35622;2;0;0;0;0;0;6;0;27210;2;0;0;0;0;0;7;0;22270;0;0;0;0;8;0;21664;0;0;0;0;9;0;11455;0;0;0;0
24.02.19;21:20:00;1;605;10903;0;2;0;15405;0;0;0;0;3;0;9581;0;0;0;0;4;0;13583;0;0;0;0;5;0;35622;2;0;0;0;0;0;6;0;27210;2;0;0;0;0;0;7;0;22270;0;0;0;0;8;0;21664;0;0;0;0;9;0;11455;0;0;0;0
24.02.19;21:15:00;1;644;10853;0;2;0;15405;0;0;0;0;3;0;9581;0;0;0;0;4;0;13583;0;0;0;0;5;0;35622;2;0;0;0;0;0;6;0;27210;2;0;0;0;0;0;7;0;22270;0;0;0;0;8;0;21664;0;0;0;0;9;0;11455;0;0;0;0
24.02.19;21:10:00;1;824;10800;0;2;0;15405;0;0;0;0;3;0;9581;0;0;0;0;4;0;13583;0;0;0;0;5;0;35622;2;0;0;0;0;0;6;0;27210;2;0;0;0;0;0;7;0;22270;0;0;0;0;8;0;21664;0;0;0;0;9;0;11455;0;0;0;0
24.02.19;21:05:00;1;810;10725;0;2;0;15405;0;0;0;0;3;0;9581;0;0;0;0;4;0;13583;0;0;0;0;5;0;35622;2;0;0;0;0;0;6;0;27210;2;0;0;0;0;0;7;0;22270;0;0;0;0;8;0;21664;0;0;0;0;9;0;11455;0;0;0;0
24.02.19;21:00:00;1;594;10666;0;2;0;15405;0;0;0;0;3;0;9581;0;0;0;0;4;0;13583;0;0;0;0;5;0;35622;2;0;0;0;0;0;6;0;27210;2;0;0;0;0;0;7;0;22270;0;0;0;0;8;0;21664;0;0;0;0;9;0;11455;0;0;0;0
24.02.19;20:55:00;1;594;10616;0;2;0;15405;0;0;0;0;3;0;9581;0;0;0;0;4;0;13583;0;0;0;0;5;0;35622;2;0;0;0;0;0;6;0;27210;2;0;0;0;0;0;7;0;22270;0;0;0;0;8;0;21664;0;0;0;0;9;0;11455;0;0;0;0
24.02.19;20:50:00;1;806;10551;0;2;0;15405;0;0;0;0;3;0;9581;0;0;0;0;4;0;13583;0;0;0;0;5;0;35622;2;0;0;0;0;0;6;0;27210;2;0;0;0;0;0;7;0;22270;0;0;0;0;8;0;21664;0;0;0;0;9;0;11455;0;0;0;0
24.02.19;20:45:00;1;604;10489;0;2;0;15405;0;0;0;0;3;0;9581;0;0;0;0;4;0;13583;0;0;0;0;5;0;35622;2;0;0;0;0;0;6;0;27210;2;0;0;0;0;0;7;0;22270;0;0;0;0;8;0;21664;0;0;0;0;9;0;11455;0;0;0;0
24.02.19;20:40:00;1;954;10439;0;2;0;15405;0;0;0;0;3;0;9581;0;0;0;0;4;0;13583;0;0;0;0;5;0;35622;2;0;0;0;0;0;6;0;27210;2;0;0;0;0;0;7;0;22270;0;0;0;0;8;0;21664;0;0;0;0;9;0;11455;0;0;0;0
24.02.19;20:35:00;1;601;10361;0;2;0;15405;0;0;0;0;3;0;9581;0;0;0;0;4;0;13583;0;0;0;0;5;0;35622;2;0;0;0;0;0;6;0;27210;2;0;0;0;0;0;7;0;22270;0;0;0;0;8;0;21664;0;0;0;0;9;0;11455;0;0;0;0
24.02.19;20:30:00;1;605;10311;0;2;0;15405;0;0;0;0;3;0;9581;0;0;0;0;4;0;13583;0;0;0;0;5;0;35622;2;0;0;0;0;0;6;0;27210;2;0;0;0;0;0;7;0;22270;0;0;0;0;8;0;21664;0;0;0;0;9;0;11455;0;0;0;0
24.02.19;20:25:00;1;1022;10261;0;2;0;15405;0;0;0;0;3;0;9581;0;0;0;0;4;0;13583;0;0;0;0;5;0;35622;2;0;0;0;0;0;6;0;27210;2;0;0;0;0;0;7;0;22270;0;0;0;0;8;0;21664;0;0;0;0;9;0;11455;0;0;0;0
24.02.19;20:20:00;1;662;10182;0;2;0;15405;0;0;0;0;3;0;9581;0;0;0;0;4;0;13583;0;0;0;0;5;0;35622;2;0;0;0;0;0;6;0;27210;2;0;0;0;0;0;7;0;22270;0;0;0;0;8;0;21664;0;0;0;0;9;0;11455;0;0;0;0
24.02.19;20:15:00;1;448;10125;0;2;0;15405;0;0;0;0;3;0;9581;0;0;0;0;4;0;13583;0;0;0;0;5;0;35622;2;0;0;0;0;0;6;0;27210;2;0;0;0;0;0;7;0;22270;0;0;0;0;8;0;21664;0;0;0;0;9;0;11455;0;0;0;0
24.02.19;20:10:00;1;678;10069;0;2;0;15405;0;0;0;0;3;0;9581;0;0;0;0;4;0;13583;0;0;0;0;5;0;35622;2;0;0;0;0;0;6;0;27210;2;0;0;0;0;0;7;0;22270;0;0;0;0;8;0;21664;0;0;0;0;9;0;11455;0;0;0;0
24.02.19;20:05:00;1;395;10019;0;2;0;15405;0;0;0;0;3;0;9581;0;0;0;0;4;0;13583;0;0;0;0;5;0;35622;2;0;0;0;0;0;6;0;27210;2;0;0;0;0;0;7;0;22270;0;0;0;0;8;0;21664;0;0;0;0;9;0;11455;0;0;0;0
24.02.19;20:00:00;1;520;9974;0;2;0;15405;0;0;0;0;3;0;9581;0;0;0;0;4;0;13583;0;0;0;0;5;0;35622;2;0;0;0;0;0;6;0;27210;2;0;0;0;0;0;7;0;22270;0;0;0;0;8;0;21664;0;0;0;0;9;0;11455;0;0;0;0
24.02.19;19:55:00;1;699;9939;0;2;0;15405;0;0;0;0;3;0;9581;0;0;0;0;4;0;13583;0;0;0;0;5;0;35622;2;0;0;0;0;0;6;0;27210;2;0;0;0;0;0;7;0;22270;0;0;0;0;8;0;21664;0;0;0;0;9;0;11455;0;0;0;0
24.02.19;19:50:00;1;291;9889;0;2;0;15405;0;0;0;0;3;0;9581;0;0;0;0;4;0;13583;0;0;0;0;5;0;35622;2;0;0;0;0;0;6;0;27210;2;0;0;0;0;0;7;0;22270;0;0;0;0;8;0;21664;0;0;0;0;9;0;11455;0;0;0;0
24.02.19;19:45:00;1;1021;9864;0;2;0;15405;0;0;0;0;3;0;9581;0;0;0;0;4;0;13583;0;0;0;0;5;0;35622;2;0;0;0;0;0;6;0;27210;2;0;0;0;0;0;7;0;22270;0;0;0;0;8;0;21664;0;0;0;0;9;0;11455;0;0;0;0
24.02.19;19:40:00;1;293;9814;0;2;0;15405;0;0;0;0;3;0;9581;0;0;0;0;4;0;13583;0;0;0;0;5;0;35622;2;0;0;0;0;0;6;0;27210;2;0;0;0;0;0;7;0;22270;0;0;0;0;8;0;21664;0;0;0;0;9;0;11455;0;0;0;0
24.02.19;19:35:00;1;697;9790;0;2;0;15405;0;0;0;0;3;0;9581;0;0;0;0;4;0;13583;0;0;0;0;5;0;35622;2;0;0;0;0;0;6;0;27210;2;0;0;0;0;0;7;0;22270;0;0;0;0;8;0;21664;0;0;0;0;9;0;11455;0;0;0;0
24.02.19;19:30:00;1;308;9739;0;2;0;15405;0;0;0;0;3;0;9581;0;0;0;0;4;0;13583;0;0;0;0;5;0;35622;2;0;0;0;0;0;6;0;27210;2;0;0;0;0;0;7;0;22270;0;0;0;0;8;0;21664;0;0;0;0;9;0;11455;0;0;0;0
24.02.19;19:25:00;1;707;9713;0;2;0;15405;0;0;0;0;3;0;9581;0;0;0;0;4;0;13583;0;0;0;0;5;0;35622;2;0;0;0;0;0;6;0;27210;2;0;0;0;0;0;7;0;22270;0;0;0;0;8;0;21664;0;0;0;0;9;0;11455;0;0;0;0
24.02.19;19:20:00;1;271;9663;0;2;0;15405;0;0;0;0;3;0;9581;0;0;0;0;4;0;13583;0;0;0;0;5;0;35622;2;0;0;0;0;0;6;0;27210;2;0;0;0;0;0;7;0;22270;0;0;0;0;8;0;21664;0;0;0;0;9;0;11455;0;0;0;0
24.02.19;19:15:00;1;468;9640;0;2;0;15405;0;0;0;0;3;0;9581;0;0;0;0;4;0;13583;0;0;0;0;5;0;35622;2;0;0;0;0;0;6;0;27210;2;0;0;0;0;0;7;0;22270;0;0;0;0;8;0;21664;0;0;0;0;9;0;11455;0;0;0;0
24.02.19;19:10:00;1;225;9593;0;2;0;15405;0;0;0;0;3;0;9581;0;0;0;0;4;0;13583;0;0;0;0;5;0;35622;2;0;0;0;0;0;6;0;27210;2;0;0;0;0;0;7;0;22270;0;0;0;0;8;0;21664;0;0;0;0;9;0;11455;0;0;0;0
24.02.19;19:05:00;1;698;9574;0;2;0;15405;0;0;0;0;3;0;9581;0;0;0;0;4;0;13583;0;0;0;0;5;0;35622;2;0;0;0;0;0;6;0;27210;2;0;0;0;0;0;7;0;22270;0;0;0;0;8;0;21664;0;0;0;0;9;0;11455;0;0;0;0
24.02.19;19:00:00;1;225;9528;0;2;0;15405;0;0;0;0;3;0;9581;0;0;0;0;4;0;13583;0;0;0;0;5;0;35622;2;0;0;0;0;0;6;0;27210;2;0;0;0;0;0;7;0;22270;0;0;0;0;8;0;21664;0;0;0;0;9;0;11455;0;0;0;0
24.02.19;18:56:00;1;580;9513;0;2;0;15405;0;0;0;0;3;0;9581;0;0;0;0;4;0;13583;0;0;0;0;5;0;35622;2;0;0;0;0;0;6;0;27210;2;0;0;0;0;0;7;0;22270;0;0;0;0;8;0;21664;0;0;0;0;9;0;11455;0;0;0;0
24.02.19;18:50:00;1;225;9464;0;2;0;15405;0;0;0;0;3;0;9581;0;0;0;0;4;0;13583;0;0;0;0;5;0;35622;2;0;0;0;0;0;6;0;27210;2;0;0;0;0;0;7;0;22270;0;0;0;0;8;0;21664;0;0;0;0;9;0;11455;0;0;0;0
24.02.19;18:45:00;1;629;9445;0;2;0;15405;0;0;0;0;3;0;9581;0;0;0;0;4;0;13583;0;0;0;0;5;0;35622;2;0;0;0;0;0;6;0;27210;2;0;0;0;0;0;7;0;22270;0;0;0;0;8;0;21664;0;0;0;0;9;0;11455;0;0;0;0
24.02.19;18:40:00;1;225;9400;0;2;0;15405;0;0;0;0;3;0;9581;0;0;0;0;4;0;13583;0;0;0;0;5;0;35622;2;0;0;0;0;0;6;0;27210;2;0;0;0;0;0;7;0;22270;0;0;0;0;8;0;21664;0;0;0;0;9;0;11455;0;0;0;0
24.02.19;18:35:00;1;499;9381;0;2;0;15405;0;0;0;0;3;0;9581;0;0;0;0;4;0;13583;0;0;0;0;5;0;35622;2;0;0;0;0;0;6;0;27210;2;0;0;0;0;0;7;0;22270;0;0;0;0;8;0;21664;0;0;0;0;9;0;11455;0;0;0;0
24.02.19;18:30:00;1;268;9333;0;2;0;15405;0;0;0;0;3;0;9581;0;0;0;0;4;0;13583;0;0;0;0;5;0;35622;2;0;0;0;0;0;6;0;27210;2;0;0;0;0;0;7;0;22270;0;0;0;0;8;0;21664;0;0;0;0;9;0;11455;0;0;0;0
24.02.19;18:25:00;1;474;9311;0;2;0;15405;0;0;0;0;3;0;9581;0;0;0;0;4;0;13583;0;0;0;0;5;0;35622;2;0;0;0;0;0;6;0;27210;2;0;0;0;0;0;7;0;22270;0;0;0;0;8;0;21664;0;0;0;0;9;0;11455;0;0;0;0
24.02.19;18:20:00;1;275;9262;0;2;0;15405;0;0;0;0;3;0;9581;0;0;0;0;4;0;13583;0;0;0;0;5;0;35622;2;0;0;0;0;0;6;0;27210;2;0;0;0;0;0;7;0;22270;0;0;0;0;8;0;21664;0;0;0;0;9;0;11455;0;0;0;0
24.02.19;18:15:00;1;225;9237;0;2;0;15405;0;0;0;0;3;0;9581;0;0;0;0;4;0;13583;0;0;0;0;5;0;35622;2;0;0;0;0;0;6;0;27210;2;0;0;0;0;0;7;0;22270;0;0;0;0;8;0;21664;0;0;0;0;9;0;11455;0;0;0;0
24.02.19;18:10:00;1;730;9218;0;2;0;15405;0;0;84;5;3;0;9581;0;0;181;11;4;0;13583;0;0;0;0;5;0;35622;2;0;0;0;0;0;6;0;27210;2;0;0;0;0;0;7;0;22270;0;0;0;0;8;0;21664;0;0;0;0;9;0;11455;0;0;0;0
24.02.19;18:05:00;1;224;9169;0;2;0;15405;6;0;294;16;3;0;9581;6;0;327;17;4;0;13583;0;0;8;1;5;0;35622;2;0;0;0;0;0;6;0;27210;2;0;0;0;0;0;7;0;22270;0;0;0;0;8;0;21664;0;0;0;0;9;0;11455;0;0;0;0
24.02.19;18:00:00;1;243;9150;0;2;0;15405;6;0;335;16;3;0;9581;6;1;396;18;4;0;13583;2;0;77;13;5;0;35622;2;0;0;39;39;3;6;0;27210;1;1;0;29;36;4;7;0;22270;0;0;0;0;8;0;21664;0;0;0;0;9;0;11455;0;0;0;0
24.02.19;17:55:00;1;790;9130;0;2;0;15405;6;0;373;17;3;0;9581;6;0;468;18;4;0;13583;1;0;130;14;5;0;35622;23;0;0;389;391;24;6;0;27210;23;6;3;180;497;22;7;0;22270;0;0;229;13;8;0;21664;0;0;227;12;9;0;11455;0;0;235;8
24.02.19;17:50:00;1;1128;9071;0;2;0;15405;6;0;395;17;3;0;9581;6;3;475;19;4;0;13583;1;0;181;14;5;0;35622;26;0;0;420;605;24;6;0;27210;23;6;3;183;561;22;7;0;22270;6;0;363;17;8;0;21664;6;0;361;16;9;0;11455;6;0;370;11
24.02.19;17:45:00;1;323;8988;0;2;2;15405;6;7;402;18;3;0;9581;3;9;481;19;4;0;13583;1;0;221;15;5;10;35622;23;0;2;424;671;24;6;0;27210;23;2;8;461;586;23;7;0;22270;6;1;421;18;8;0;21664;6;1;412;17;9;0;11455;6;0;442;12
24.02.19;17:40:00;1;342;8961;0;2;10;15405;3;23;396;19;3;3;9581;6;15;483;19;4;0;13583;3;0;206;16;5;79;35621;4;9;8;394;626;25;6;51;27210;4;13;27;506;482;24;7;3;22270;6;4;454;18;8;1;21664;6;5;453;17;9;1;11455;6;3;478;12
24.02.19;17:35:00;1;337;8932;0;2;83;15404;4;120;378;20;3;25;9581;6;41;478;20;4;24;13583;3;25;198;16;5;112;35614;4;29;25;394;626;25;6;79;27205;4;26;46;506;482;24;7;1;22269;6;6;478;18;8;2;21664;6;7;481;18;9;2;11455;6;3;524;12
24.02.19;17:30:00;1;637;8904;0;2;157;15397;4;195;356;20;3;81;9579;4;115;429;20;4;98;13581;3;102;214;17;5;153;35604;4;51;48;394;626;26;6;106;27198;4;35;55;506;482;25;7;60;22269;4;90;385;19;8;32;21664;6;54;431;18;9;0;11454;6;0;564;13
24.02.19;17:25:00;1;295;8850;0;2;258;15384;4;301;354;21;3;146;9572;4;185;437;21;4;178;13573;5;185;228;17;5;204;35591;4;81;54;394;626;26;6;150;27189;4;64;87;506;482;25;7;158;22264;4;193;388;19;8;82;21662;4;119;439;18;9;12;11454;3;24;507;13
24.02.19;17:20:00;1;295;8825;0;2;373;15365;4;426;353;22;3;218;9561;4;258;415;21;4;276;13559;5;288;225;17;5;254;35574;4;104;93;394;626;26;6;196;27177;4;93;123;506;482;25;7;272;22252;4;300;412;20;8;125;21656;4;160;412;19;9;17;11453;6;28;522;13
24.02.19;17:15:00;1;281;8801;0;2;511;15334;4;562;356;22;3;310;9543;4;354;432;22;4;390;13537;5;406;216;18;5;314;35553;4;144;120;394;626;26;6;259;27160;4;78;93;506;502;25;7;449;22230;4;494;410;20;8;228;21645;4;269;434;19;9;30;11452;6;43;515;14
24.02.19;17:10:00;1;229;8776;0;2;581;15291;4;632;355;23;3;374;9518;4;421;446;22;4;505;13504;5;526;215;18;5;414;35526;4;208;149;409;626;26;6;372;27137;4;199;236;572;567;25;7;680;22193;4;731;426;21;8;393;21626;4;435;466;20;9;74;11449;4;104;465;15
24.02.19;17:05:00;1;468;8750;0;2;734;15243;4;793;362;24;3;396;9487;4;445;464;22;4;614;13462;5;640;215;19;5;565;35491;4;286;218;413;569;26;6;481;27106;4;224;255;599;580;25;7;952;22137;4;1016;479;21;8;540;21594;4;589;455;20;9;92;11443;4;125;503;15
24.02.19;17:00:00;1;229;8712;0;2;954;15182;4;1021;356;25;3;544;9454;4;601;449;23;4;687;13412;5;716;212;19;5;744;35443;4;388;289;424;591;27;6;599;27065;4;293;325;602;586;25;7;1204;22058;4;1278;483;22;8;689;21549;4;744;482;21;9;108;11435;4;144;521;15
24.02.19;16:55:00;1;229;8693;0;2;1133;15103;4;1206;360;26;3;674;9409;4;733;457;23;4;789;13355;5;822;220;20;5;960;35380;4;481;396;423;662;27;6;747;27014;4;371;393;609;589;25;7;1435;21959;4;1518;479;22;8;792;21493;4;845;383;21;9;125;11427;4;162;553;16
24.02.19;16:50:00;1;246;8674;0;2;1306;15011;4;1384;363;27;3;783;9354;4;845;439;24;4;921;13291;5;960;233;20;5;1151;35300;4;583;486;422;705;27;6;888;26952;4;454;476;612;586;25;7;1629;21842;4;1717;479;22;8;1102;21427;4;1162;362;22;9;143;11416;4;179;555;16
24.02.19;16:45:00;1;272;8653;0;2;1437;14903;4;1523;374;27;3;873;9289;4;935;436;24;4;1043;13215;5;1086;241;20;5;1353;35202;4;683;575;429;699;27;6;1034;26877;4;508;530;615;585;25;7;1847;21708;4;1935;485;23;8;1452;21337;4;1525;404;22;9;155;11404;4;190;486;17
24.02.19;16:40:00;1;306;8605;0;2;1604;14783;4;1697;382;28;3;945;9217;4;1011;443;24;4;1138;13128;5;1185;238;21;5;1542;35088;4;792;655;434;702;27;6;1195;26789;4;588;604;612;585;26;7;2032;21554;4;2133;482;23;8;1784;21216;4;1869;441;23;9;155;11392;4;184;365;17
24.02.19;16:35:00;1;304;8580;0;2;1741;14650;4;1841;381;29;3;1004;9138;4;1073;435;24;4;1196;13033;5;1245;213;21;5;1764;34958;4;902;754;433;703;28;6;1357;26689;4;673;687;615;587;26;7;2212;21385;4;2324;487;23;8;2052;21069;4;2151;456;23;9;311;11379;4;343;352;18
24.02.19;16:30:00;1;298;8553;0;2;1933;14505;4;2042;393;29;3;1072;9055;4;1140;432;24;4;1301;12934;5;1355;205;21;5;1968;34810;4;1020;843;426;706;28;6;1513;26575;4;745;758;611;585;26;7;2391;21201;4;2500;475;24;8;2280;20898;4;2391;470;23;9;577;11353;4;621;354;19
24.02.19;16:25:00;1;301;8529;0;2;2079;14344;4;2191;396;30;3;1147;8965;4;1220;435;24;4;1353;12826;5;1409;203;21;5;2212;34644;4;1142;953;431;695;28;6;1696;26447;4;851;861;616;583;26;7;2568;21004;4;2692;482;24;8;2513;20710;4;2636;486;24;9;876;11307;4;926;359;20
24.02.19;16:20:00;1;320;8477;0;2;2167;14172;4;2292;404;30;3;1202;8870;4;1276;438;24;4;1377;12713;5;1434;215;21;5;2421;34460;4;1276;1051;433;696;28;6;1871;26305;4;973;978;609;585;26;7;2730;20789;4;2862;479;24;8;2687;20501;4;2814;481;24;9;1115;11235;4;1182;418;21
24.02.19;16:15:00;1;293;8451;0;2;2301;13992;4;2430;400;31;3;1264;8770;4;1340;437;25;4;1405;12598;5;1463;216;22;5;2647;34258;4;1400;1152;428;703;29;6;2057;26148;4;1061;1064;614;588;26;7;2899;20563;4;3034;480;24;8;2853;20277;4;2993;482;24;9;1312;11143;4;1389;449;22
24.02.19;16:10:00;1;302;8426;0;2;2433;13800;4;2563;398;31;3;1337;8665;4;1419;435;24;4;1435;12481;5;1494;200;22;5;2915;34036;4;1547;1274;433;700;29;6;2240;25976;4;1152;1152;608;588;26;7;3075;20321;4;3227;475;25;8;3030;20040;4;3179;474;24;9;1475;11034;4;1562;483;22
24.02.19;16:05:00;1;533;8401;0;2;2575;13599;4;2709;390;31;3;1425;8554;4;1509;431;25;4;1430;12362;5;1490;200;22;5;3157;33793;4;1682;1385;431;697;29;6;2442;25788;4;1254;1242;612;587;26;7;3244;20066;4;3409;476;25;8;3207;19788;4;3361;476;25;9;1654;10911;4;1751;506;23
24.02.19;16:00:00;1;532;8372;0;2;2731;13384;4;2876;396;31;3;1505;8435;4;1590;433;24;4;1379;12243;5;1437;206;22;5;3383;33528;4;1819;1485;430;695;29;6;2610;25584;4;1345;1342;609;586;26;7;3388;19795;4;3559;474;25;8;3352;19521;4;3509;474;25;9;1777;10774;4;1881;518;23
24.02.19;15:55:00;1;247;8328;0;2;2747;13157;4;2897;402;32;3;1521;8310;4;1609;433;25;4;1372;12127;5;1429;223;23;5;3480;33246;4;1873;1527;427;695;29;6;2761;25366;4;1423;1405;602;589;26;7;3507;19513;4;3671;479;25;8;3465;19242;4;3633;477;25;9;1864;10626;4;1977;525;24
24.02.19;15:50:00;1;259;8307;0;2;2889;12928;4;3047;401;32;3;1592;8184;4;1684;435;25;4;1539;12015;5;1603;209;23;5;3899;32953;4;2114;1711;429;687;29;6;3039;25139;4;1555;1529;608;588;26;7;3761;19225;4;3944;471;25;8;3679;18954;4;3864;487;25;9;2010;10470;4;2129;528;24
24.02.19;15:45:00;1;255;8286;0;2;3172;12696;4;3344;406;31;3;1595;8055;4;1688;460;24;4;1738;11889;5;1810;214;23;5;4425;32628;4;2396;1964;430;698;29;6;3397;24888;4;1733;1695;612;579;27;7;4122;18912;4;4325;477;25;8;4050;18648;4;4250;479;25;9;2210;10304;4;2337;534;23
24.02.19;15:40:00;1;535;8263;0;2;886;12432;4;956;393;31;3;513;7921;4;570;483;24;4;635;11745;5;662;233;24;5;1399;32283;4;714;596;414;645;30;6;1181;24618;4;652;651;579;556;27;7;1309;18570;4;1380;463;26;8;1344;18313;4;1423;452;25;9;684;10121;4;743;524;23
24.02.19;15:35:00;1;284;8217;0;2;3417;12357;4;3609;396;34;3;1845;7878;4;1946;428;26;4;2070;11690;5;2156;234;25;5;4816;32169;4;2622;2126;421;684;30;6;3693;24529;4;1893;1860;599;577;27;7;4165;18450;4;4364;463;26;8;4073;18187;4;4272;461;26;9;2188;10056;4;2319;516;25
24.02.19;15:30:00;1;286;8193;0;2;3796;12083;4;3999;394;33;3;2072;7730;4;2178;415;26;4;2381;11524;5;2480;237;25;5;5713;31759;4;3117;2536;421;678;30;6;4377;24221;4;2260;2204;591;577;27;7;4801;18116;4;5030;458;26;8;4781;17861;4;5012;463;26;9;2665;9881;4;2815;512;25
24.02.19;15:25:00;1;285;8170;0;2;3220;11766;4;3392;391;33;3;1720;7557;4;1820;451;25;4;2117;11325;5;2205;239;25;5;4676;31285;4;2560;2064;423;662;30;6;3700;23856;4;1905;1889;581;563;27;7;3883;17718;4;4059;429;26;8;3995;17464;4;4185;454;25;9;2196;9659;4;2328;521;24
24.02.19;15:20:00;1;907;8146;0;2;3257;11479;4;3432;382;33;3;1755;7409;4;1856;440;26;4;2307;11143;5;2403;234;25;5;5163;30899;4;2828;2290;421;675;30;6;4120;23556;4;2135;2080;596;569;26;7;4498;17390;4;4699;432;26;8;4260;17142;4;4472;467;25;9;2163;9491;4;2294;523;25
24.02.19;15:15:00;1;287;8093;0;2;3414;11220;4;3597;391;33;3;1924;7268;4;2023;423;26;4;2621;10958;5;2730;236;25;5;5573;30454;4;3072;2452;420;682;29;6;4035;23218;4;2056;2030;575;558;26;7;4302;17024;4;4513;466;25;8;4207;16787;4;4401;457;25;9;2337;9309;4;2475;517;25
24.02.19;15:10:00;1;287;8069;0;2;3893;10934;4;4097;384;32;3;2136;7107;4;2249;416;25;4;2747;10738;5;2862;230;25;5;6035;30002;4;3310;2679;422;666;29;6;4497;22872;4;2316;2258;583;566;26;7;4784;16660;4;5015;456;25;8;4723;16434;4;4953;460;24;9;2612;9114;4;2766;512;24
24.02.19;15:05:00;1;263;8045;0;2;3464;10607;4;3655;393;31;3;1868;6928;4;1972;433;25;4;2575;10508;5;2682;231;25;5;5670;29506;4;3111;2525;418;681;29;6;4311;22495;4;2227;2193;602;572;26;7;4506;16257;4;4719;438;25;8;4579;16033;4;4804;469;24;9;2607;8892;4;2754;513;24
24.02.19;15:00:00;1;568;8023;0;2;3623;10327;4;3815;386;32;3;2039;6776;4;2149;430;25;4;2728;10295;5;2842;229;25;5;5658;29044;4;3108;2520;413;682;28;6;4161;22142;4;2124;2096;588;558;26;7;4290;15881;4;4501;459;24;8;4364;15650;4;4575;457;24;9;2435;8675;4;2580;517;24
24.02.19;14:55:00;1;265;7974;0;2;3887;10043;4;4090;376;31;3;2115;6616;4;2230;448;25;4;3029;10081;5;3156;234;24;5;6514;28552;4;3584;2897;419;679;28;6;4762;21775;4;2461;2401;582;558;25;7;4883;15532;4;5114;452;23;8;4690;15300;4;4917;466;23;9;2789;8482;4;2954;508;24
24.02.19;14:50:00;1;296;7952;0;2;4117;9723;4;4330;382;30;3;2377;6437;4;2510;482;25;4;3353;9823;5;3492;237;23;5;6447;28014;4;3561;2856;423;685;27;6;4931;21365;4;2525;2498;603;561;25;7;5139;15144;4;5388;457;22;8;4902;14932;4;5145;455;22;9;2692;8253;4;2849;519;23
24.02.19;14:45:00;1;246;7929;0;2;4365;9376;4;4595;390;28;3;2670;6239;4;2815;505;25;4;3530;9543;5;3677;233;22;5;7153;27466;4;3961;3208;428;679;26;6;5411;20948;4;2805;2725;596;562;24;7;5532;14710;4;5803;462;21;8;5522;14523;4;5782;451;21;9;3097;8028;4;3276;515;22
24.02.19;14:40:00;1;842;7909;0;2;4534;9015;4;4771;398;26;3;2926;6018;4;3087;512;24;4;3794;9250;5;3951;238;21;5;7570;26869;4;4194;3375;430;691;26;6;5735;20495;4;2990;2872;601;575;24;7;5867;14252;4;6155;474;20;8;5788;14062;4;6074;471;20;9;3173;7768;4;3350;520;21
24.02.19;14:35:00;1;223;7863;0;2;2704;8636;4;2856;420;22;3;1855;5774;4;1967;522;22;4;2502;8934;5;2606;243;19;5;4857;26234;4;2632;2167;435;714;26;6;3893;20015;4;2017;1963;608;569;24;7;3628;13761;4;3803;484;20;8;3617;13580;4;3794;474;20;9;2053;7503;4;2179;537;18